Temperature
14 15 15 16 16 17 19 21 22 22 23 23 23 23 22 20 20 17 16 16 16 16 16 16 16 17 16 16 16 16 16 16 16 16 16 16 16 16 16 16 16 16 16 16 16 16 16 16 16
14 14 15 16 16 17 19 21 22 22 22 22 22 22 21 19 17 16 15 15 15 15 16 16 16 16 16 16 16 16 16 16 16 16 16 16 16 16 16 16 16 16 16 16 16 16 16 16 16
14 14 15 16 17 18 20 21 21 21 21 21 21 21 20 18 17 16 15 15 15 15 15 16 16 16 16 16 16 16 16 16 16 16 16 16 16 16 16 16 16 16 16 16 16 16 16 16 16
13 14 16 16 17 19 21 21 21 21 21 20 20 19 17 16 16 15 15 15 15 15 15 15 16 16 16 16 16 16 16 16 16 16 16 16 16 16 16 16 16 16 16 16 16 16 16 16 16
13 15 15 16 18 19 20 21 21 20 20 20 19 18 16 15 15 15 15 15 14 14 15 15 15 15 16 16 16 16 16 16 16 16 16 16 16 16 16 16 16 16 16 16 16 15 15 16 15
14 15 15 16 18 19 20 20 20 20 20 20 19 17 15 14 15 14 14 14 14 14 15 15 15 15 15 15 15 15 15 15 15 15 15 16 16 16 16 16 15 15 15 15 15 15 15 15 15
14 15 16 17 18 18 19 19 20 19 19 19 18 17 15 14 14 14 14 14 14 14 14 14 14 15 15 15 15 15 15 15 15 15 15 15 15 15 15 15 15 15 15 15 15 15 15 15 15
14 14 16 17 18 18 18 18 19 18 18 18 17 16 15 14 14 14 13 13 13 13 13 14 14 14 14 14 14 15 15 15 15 15 15 15 15 15 15 15 15 15 15 15 15 15 15 15 15
13 14 15 16 17 17 18 17 17 17 17 16 15 15 14 14 13 13 13 13 13 13 13 13 13 14 14 14 14 14 14 14 14 14 14 14 15 15 15 15 15 15 15 15 15 15 15 15 15
14 13 15 16 16 16 17 17 16 16 16 15 15 14 14 13 13 13 13 13 13 13 13 13 13 13 13 13 14 14 14 14 14 14 14 14 14 14 14 14 14 15 15 15 14 14 14 14 14
14 14 14 15 15 16 16 16 16 16 15 15 14 13 13 13 13 13 12 12 12 12 13 13 13 13 13 13 13 13 13 14 14 14 14 14 14 14 14 14 14 14 14 14 14 14 14 14 14
14 14 14 14 13 14 15 15 15 15 15 14 14 13 13 13 13 12 12 12 12 12 12 12 12 13 13 13 13 13 13 13 13 13 13 13 13 13 13 13 14 14 14 14 14 14 14 14 14
14 13 13 13 13 13 14 14 14 14 14 13 13 13 13 12 12 12 11 11 12 12 12 12 12 12 12 12 13 13 13 13 13 13 13 13 13 13 13 13 13 13 13 13 13 13 13 14 14
13 13 13 13 13 13 13 13 14 13 13 13 13 12 12 12 12 11 11 11 11 11 12 12 12 12 12 12 12 12 12 12 12 12 12 12 12 12 12 13 13 13 13 13 13 13 13 13 13
13 13 13 13 13 13 13 12 13 13 13 13 13 12 12 12 11 11 11 11 11 11 11 11 12 12 12 12 12 12 12 11 11 12 12 12 12 12 12 12 12 12 12 12 13 13 13 13 13
13 13 12 13 13 13 12 12 14 13 13 13 13 12 12 11 11 11 10 10 11 11 11 11 11 11 11 11 11 11 11 11 11 11 11 11 11 11 12 12 12 12 12 12 12 12 12 13 13
13 12 12 13 13 13 13 12 13 13 13 13 13 12 12 11 11 10 10 10 10 10 10 11 11 11 11 11 11 10 11 11 11 11 11 11 11 11 11 11 11 11 11 11 11 12 12 12 12
12 13 13 13 13 13 12 12 13 13 13 13 13 12 12 11 11 10 10 10 10 10 10 10 10 10 10 10 10 10 10 10 10 10 10 10 10 10 10 11 11 11 11 11 11 11 12 12 12
13 13 12 13 13 12 12 12 13 13 13 13 13 12 12 11 10 10 10 10 10 10 10 10 10 10 10 10 10 10 10 10 10 10 10 10 10 10 10 10 10 10 10 10 11 11 11 11 11
12 12 12 12 13 12 12 12 13 13 13 13 13 12 12 11 10 10 10 9 9 9 9 9 9 9 9 9 9 9 9 9 9 9 9 9 9 9 9 9 10 10 10 10 10 10 10 10 11
12 11 11 11 11 12 11 11 12 13 13 13 13 12 12 11 10 10 9 9 9 9 9 9 9 9 9 9 8 8 8 8 8 8 8 9 9 9 9 9 9 9 9 9 9 9 10 10 10
10 11 11 10 10 10 11 9 12 12 12 12 12 12 12 11 11 10 9 9 9 9 9 9 9 8 8 8 8 8 7 7 7 8 8 8 8 8 8 8 8 9 9 9 9 9 9 9 9
10 11 10 10 10 9 11 10 11 12 11 11 11 12 11 11 10 10 9 9 9 9 8 8 8 8 8 8 7 7 7 7 7 7 7 7 7 7 8 8 8 8 8 8 9 9 8 9 9
10 10 10 10 9 9 11 10 11 12 12 12 12 12 12 11 10 9 9 9 8 8 8 8 8 8 8 7 7 7 7 6 7 7 7 7 7 7 7 7 7 8 8 8 8 8 8 8 8
10 9 8 9 9 10 12 11 11 13 13 12 12 12 11 10 10 9 9 8 8 8 8 8 7 7 7 7 7 7 6 6 6 6 6 6 6 6 7 7 7 7 7 7 7 8 8 8 8
9 9 8 9 9 10 11 10 11 12 12 12 12 11 11 10 9 9 9 8 8 7 7 7 7 7 7 7 6 6 6 6 6 6 6 6 6 6 6 6 6 7 7 7 7 7 7 7 7
9 9 9 8 9 9 10 12 12 12 11 11 11 11 10 10 9 9 8 8 7 7 7 7 7 6 6 6 6 6 6 6 5 5 5 5 5 6 6 6 6 6 6 6 6 6 6 6 7
8 9 8 8 8 9 11 12 11 11 10 10 10 10 10 10 9 8 8 8 7 7 7 6 6 6 6 6 6 5 5 5 5 5 5 5 5 5 5 5 5 5 5 5 6 6 6 6 6
8 8 8 8 8 8 9 10 12 11 11 10 10 11 10 10 9 8 8 7 7 7 6 6 6 6 6 6 5 5 5 5 4 4 4 4 4 4 4 4 4 5 5 5 5 5 5 5 5
8 9 8 7 8 8 7 8 12 11 11 11 10 10 10 9 9 8 8 7 7 6 6 6 6 6 6 5 5 5 4 4 4 4 4 4 4 4 4 4 4 4 4 4 4 4 4 4 4
Wind_Speed
12 11 6 3 3 5 10 6 4 3 3 1 4 4 5 6 5 9 5 8 7 7 10 11 9 8 7 7 7 6 5 4 4 4 4 4 4 4 4 4 4 5 5 6 6 7 8 8 8
10 7 4 4 5 8 8 8 6 2 3 4 4 3 4 7 8 8 6 6 6 8 10 11 9 8 7 6 6 5 4 3 3 3 4 4 5 5 4 4 4 4 4 5 6 7 7 8 8
9 7 4 4 6 8 5 6 5 4 6 3 3 4 4 6 7 5 6 5 6 8 10 11 10 8 7 6 5 5 3 2 2 2 3 3 4 4 5 5 4 4 4 4 6 7 7 7 7
4 4 4 6 11 8 4 2 5 6 5 3 3 4 5 7 5 6 6 6 7 8 10 10 10 9 7 6 5 4 3 2 1 1 2 2 3 4 4 4 5 5 5 5 6 7 7 7 7
4 3 5 8 11 5 2 1 2 5 6 5 4 3 5 6 9 8 6 6 7 7 9 10 10 8 7 6 5 4 3 3 1 0 1 2 3 4 4 5 5 6 6 6 6 7 8 8 7
3 4 5 8 7 4 3 1 1 3 5 5 4 3 5 6 8 7 6 6 7 7 7 8 9 8 7 5 5 4 3 3 2 1 1 2 4 4 5 6 6 7 7 7 7 7 8 8 8
4 4 6 7 5 5 3 2 2 2 4 3 3 3 6 6 6 6 6 6 7 7 6 6 6 6 6 6 4 3 3 2 1 1 2 3 3 5 6 7 7 8 8 8 8 8 8 9 9
4 3 6 6 6 5 3 2 2 2 3 4 3 3 5 7 6 6 6 6 6 6 5 5 5 5 4 3 3 2 1 1 2 2 3 4 5 6 7 8 9 9 10 10 10 10 9 10 10
3 3 5 3 3 2 5 2 2 3 3 3 3 4 8 9 6 5 5 5 5 6 5 4 5 5 4 2 2 1 1 1 2 3 4 5 5 6 6 8 9 10 11 11 11 12 11 11 12
3 3 1 3 4 3 4 3 2 1 3 3 5 6 9 7 6 5 4 4 4 5 5 5 5 5 5 4 3 1 1 1 3 3 3 4 5 5 5 7 10 11 11 12 12 13 13 11 10
1 1 2 5 7 4 3 2 1 2 2 4 6 7 7 6 5 5 4 5 5 5 5 6 5 6 5 4 3 3 2 2 3 3 4 4 4 4 4 3 5 8 10 9 10 11 10 10 9
1 1 2 3 6 4 1 1 1 1 1 5 6 5 5 5 4 5 5 5 5 5 6 6 5 5 5 5 4 3 3 3 3 3 4 3 2 2 2 1 2 4 5 6 7 7 9 11 11
2 1 2 2 2 2 0 0 0 1 2 4 5 5 5 4 4 5 6 5 4 5 5 5 6 5 5 4 4 4 4 4 5 5 5 5 2 3 3 2 2 3 3 3 4 6 7 8 8
2 2 1 0 0 1 1 1 1 2 4 5 6 5 5 5 5 5 5 4 4 4 4 4 5 5 5 4 4 4 4 4 4 4 6 6 4 3 3 3 3 3 3 4 4 5 5 5 5
3 2 2 2 2 1 1 3 4 5 5 5 6 6 5 5 5 5 5 4 4 4 4 3 3 4 5 5 5 4 4 4 3 4 6 6 6 5 4 3 3 4 4 4 4 5 4 4 5
4 3 2 3 3 3 3 3 5 7 7 6 5 6 6 5 5 5 5 5 4 3 3 3 4 4 4 4 4 4 4 4 4 4 5 6 6 5 4 3 3 4 4 3 3 3 3 4 4
4 3 3 3 3 3 4 3 3 6 7 7 6 6 6 5 5 5 6 5 4 3 2 2 3 3 4 4 3 3 3 3 3 4 4 6 6 6 4 3 3 4 3 3 4 3 3 4 4
1 2 1 2 3 3 5 5 5 6 7 7 7 6 6 5 5 6 6 5 3 2 2 2 2 3 3 3 3 3 3 3 3 3 4 6 6 7 5 4 4 3 3 3 3 4 4 3 4
2 2 2 1 1 2 5 6 6 6 7 7 7 7 6 6 5 6 5 5 3 2 2 2 2 3 3 3 3 3 3 4 3 3 5 6 7 7 5 4 4 3 3 3 4 3 4 3 2
3 2 2 1 1 2 5 7 7 7 7 7 7 8 8 7 6 5 5 4 3 2 1 1 1 2 3 3 3 2 3 3 3 4 5 6 7 7 5 4 3 3 3 3 3 3 3 3 2
2 2 1 3 4 4 3 5 6 5 6 6 6 6 7 7 6 5 4 4 3 2 1 0 1 2 2 3 2 3 3 3 3 4 4 5 6 6 5 5 4 4 3 3 3 4 4 3 3
3 4 2 3 3 2 2 4 5 7 7 8 8 7 7 6 6 5 5 4 3 2 1 0 0 1 1 2 2 3 3 3 4 4 4 5 6 6 5 4 4 4 3 3 4 4 3 3 4
2 4 2 3 4 3 4 4 5 7 7 9 9 9 8 7 6 6 5 4 3 2 2 1 1 1 1 2 2 3 3 3 4 4 5 5 4 4 4 4 4 4 3 3 3 4 4 4 4
3 3 4 3 1 4 6 5 4 5 7 7 9 8 8 7 6 5 5 4 3 3 2 1 1 1 1 2 2 3 4 4 5 5 5 5 4 4 4 3 3 4 3 3 4 4 4 4 4
2 2 2 1 2 5 2 3 6 2 4 5 6 7 7 7 6 5 5 4 3 3 2 2 1 1 1 2 2 3 4 4 4 5 5 5 4 4 4 3 3 3 4 4 4 4 4 4 4
2 1 0 2 3 2 1 5 4 4 5 5 5 5 5 6 5 5 5 4 3 3 3 2 1 1 1 1 2 2 3 3 3 4 4 4 4 4 4 4 3 4 4 5 4 4 4 4 4
2 1 1 1 3 3 5 4 2 5 5 5 5 5 5 5 5 5 5 4 4 3 3 2 2 2 1 1 2 3 3 3 4 4 4 4 4 4 4 4 4 4 4 4 4 4 4 3 4
3 4 1 1 2 4 5 5 3 5 5 5 5 5 5 4 5 5 4 4 4 3 3 3 3 2 1 1 2 3 3 4 4 4 4 4 5 5 4 4 4 5 4 4 4 4 4 4 3
3 2 3 3 3 3 4 3 3 4 4 4 4 3 4 4 4 4 4 4 3 3 3 3 3 2 1 1 2 2 3 3 3 3 4 4 5 5 4 4 4 4 4 4 4 4 4 4 3
2 4 3 3 4 4 3 5 2 5 5 3 2 2 2 2 3 3 3 3 3 3 3 3 3 2 2 1 1 2 3 3 3 4 4 4 5 4 4 4 4 4 4 4 4 4 4 3 3
Wind_Direction
290 270 251 241 227 225 232 228 215 204 226 13 33 11 35 32 42 108 120 78 82 97 108 113 107 110 106 100 98 92 97 105 125 141 145 152 154 152 144 137 129 127 135 138 136 134 133 129 123
287 267 246 230 226 222 221 213 213 189 97 61 53 33 56 70 74 97 94 79 83 88 100 109 105 107 106 102 100 98 94 100 112 140 157 166 172 172 170 163 150 140 133 144 145 143 136 135 136
275 256 241 223 229 227 212 183 168 103 90 84 77 42 42 71 80 83 84 90 85 82 90 103 104 102 98 96 94 94 97 100 120 136 154 170 182 189 189 182 174 161 147 149 155 152 147 145 146
258 227 243 240 234 231 243 163 138 136 120 110 96 89 76 44 65 88 93 88 88 87 85 95 102 100 93 88 87 88 84 81 101 146 170 181 197 201 198 195 183 175 168 161 167 166 163 162 162
242 236 225 231 235 225 245 2 119 148 143 142 122 98 87 76 83 88 85 75 83 85 84 89 91 93 89 82 81 79 69 56 52 26 228 222 221 217 208 205 195 193 189 186 180 181 180 179 179
238 236 228 226 223 216 197 190 181 144 129 129 126 108 99 103 93 88 78 71 78 86 87 90 85 86 83 79 74 68 59 42 28 352 305 266 242 231 224 218 210 206 205 202 199 195 196 192 192
248 242 243 241 218 216 189 170 171 142 125 118 104 100 119 112 96 94 82 71 70 76 80 84 87 83 79 74 64 56 48 30 353 313 297 287 268 245 235 227 219 215 213 211 210 206 205 201 200
278 279 252 245 221 205 134 101 61 65 87 72 51 122 124 118 108 99 85 77 72 67 65 62 61 68 68 69 62 43 20 340 296 269 277 274 267 253 240 231 224 221 218 216 214 210 212 210 207
272 257 243 255 251 155 119 120 58 50 73 65 53 72 113 122 122 113 103 89 78 65 51 51 44 39 37 34 50 27 314 292 283 268 267 266 258 249 239 232 228 224 221 219 217 214 214 214 213
235 252 295 347 343 65 103 95 77 102 125 122 102 99 119 127 131 127 117 99 81 67 49 40 34 24 16 9 15 347 324 310 296 289 274 276 272 260 249 239 229 226 224 222 222 219 217 215 214
256 301 19 11 18 36 76 89 118 164 180 154 131 125 131 135 139 125 99 82 74 65 50 36 24 20 13 1 359 354 339 313 297 296 299 292 284 274 260 235 223 223 220 219 223 220 217 217 217
167 53 38 26 19 15 23 76 248 230 167 91 106 118 133 142 128 106 88 75 66 61 50 35 18 14 11 5 355 352 356 355 348 336 319 311 307 297 284 247 229 221 220 215 212 213 218 221 222
167 100 65 55 16 2 10 181 2 35 95 101 122 134 146 135 110 94 91 85 73 65 54 37 17 10 7 2 349 2 3 358 350 350 338 328 318 304 302 286 266 248 239 230 228 221 221 222 224
129 133 128 67 355 307 228 212 206 199 154 146 150 156 150 132 116 106 97 89 77 66 53 40 24 15 6 360 354 350 353 346 345 348 341 335 332 323 308 293 288 278 263 248 245 236 232 227 224
160 171 178 186 189 192 196 233 202 177 158 161 161 151 142 134 129 121 111 100 84 72 56 37 27 20 6 359 353 350 343 345 356 347 336 330 323 322 312 297 288 295 290 273 263 254 251 237 232
194 196 191 163 188 185 199 238 165 154 169 177 174 160 152 144 131 122 112 102 87 73 59 36 20 14 2 356 343 339 342 347 348 342 332 324 321 318 312 293 289 306 306 292 262 250 253 248 240
200 204 190 158 195 198 225 238 178 171 183 185 182 170 161 151 143 128 117 111 102 84 68 52 25 10 358 346 334 329 332 339 341 339 333 329 324 319 314 294 291 299 297 283 277 267 250 247 247
226 226 195 195 173 216 244 241 215 199 200 195 182 173 167 164 157 137 126 118 109 94 73 50 30 14 354 339 333 334 331 337 347 344 337 329 324 320 317 307 296 295 275 278 278 274 268 249 245
290 260 268 279 145 237 248 246 239 214 210 202 182 177 175 170 151 135 130 127 119 102 70 36 16 9 5 354 346 344 342 336 331 341 340 335 329 323 319 307 302 292 270 268 274 268 271 263 253
300 282 311 346 122 263 260 263 246 214 205 192 185 177 171 165 156 147 142 135 133 131 102 28 10 8 3 350 335 314 315 316 316 330 334 329 328 324 313 306 295 290 279 273 274 273 268 270 262
318 309 333 327 317 260 258 276 220 197 184 182 191 175 165 168 169 164 158 152 150 151 137 27 350 359 356 342 329 328 328 320 323 326 324 322 321 319 316 312 303 290 276 264 269 266 251 258 263
345 9 9 325 317 271 231 280 235 187 184 189 190 181 178 174 169 164 160 161 161 159 135 139 333 331 333 338 332 326 314 312 311 312 308 310 318 322 322 320 314 300 284 273 273 271 260 252 254
337 346 317 283 291 295 237 236 260 177 193 199 193 186 182 176 168 162 156 154 149 144 148 174 256 288 310 320 311 308 309 309 310 312 310 312 312 318 321 321 313 303 293 288 279 276 268 258 249
311 311 279 248 290 272 219 207 261 193 195 186 181 177 171 164 157 150 144 139 141 142 149 181 224 275 299 312 310 308 309 309 309 307 308 307 307 310 312 313 315 310 300 293 289 282 274 266 261
295 357 1 312 236 245 179 204 253 180 135 148 154 155 155 156 157 158 154 151 158 159 166 195 220 267 290 305 308 306 298 297 295 300 301 303 305 309 311 319 314 306 302 298 290 287 283 274 263
280 286 260 257 272 311 265 233 246 116 102 109 120 132 144 157 163 165 162 161 169 170 171 187 222 258 265 292 300 304 301 299 296 299 304 304 304 303 308 313 302 294 298 301 296 282 275 271 261
293 248 330 295 287 272 250 231 177 122 119 137 153 160 174 174 169 167 166 171 175 177 181 191 225 252 250 288 308 303 309 310 307 308 307 304 304 305 309 309 306 300 294 291 289 274 274 277 271
288 317 301 229 274 278 268 238 216 166 171 171 181 186 185 175 171 171 174 177 178 181 185 190 215 232 235 276 301 311 310 310 310 316 309 306 310 311 310 308 308 306 301 295 287 279 270 267 273
192 230 247 264 264 257 284 281 36 111 124 149 170 176 178 177 177 183 181 177 177 179 180 196 212 220 231 269 295 309 307 305 312 315 311 308 308 308 306 301 297 297 301 301 292 284 282 271 271
255 233 212 229 259 243 262 273 63 90 97 102 118 135 147 165 184 191 189 182 186 191 196 205 210 212 219 241 274 287 295 303 309 308 309 312 311 306 298 297 293 292 294 294 293 293 287 281 277
Height
1493 1495 1498 1501 1503 1503 1496 1485 1480 1482 1482 1484 1485 1487 1490 1496 1500 1512 1513 1511 1512 1513 1514 1516 1518 1519 1520 1522 1523 1524 1525 1527 1528 1529 1530 1531 1531 1532 1533 1534 1535 1536 1537 1537 1538 1538 1539 1540 1540
1493 1496 1499 1500 1500 1500 1491 1483 1481 1481 1483 1485 1487 1489 1493 1499 1503 1508 1510 1511 1512 1513 1514 1515 1517 1519 1520 1521 1523 1524 1525 1526 1527 1528 1529 1530 1531 1532 1533 1534 1535 1536 1537 1537 1538 1539 1539 1540 1540
1493 1496 1498 1496 1494 1491 1484 1478 1480 1482 1484 1487 1490 1493 1497 1502 1505 1508 1509 1511 1512 1513 1514 1515 1517 1518 1520 1521 1522 1524 1525 1526 1527 1528 1529 1530 1531 1532 1533 1534 1535 1535 1536 1537 1538 1539 1539 1540 1540
1494 1497 1496 1495 1489 1482 1478 1477 1478 1482 1486 1489 1491 1496 1500 1505 1506 1508 1509 1511 1512 1513 1514 1515 1516 1518 1519 1520 1521 1523 1524 1525 1526 1527 1528 1529 1530 1531 1532 1533 1534 1535 1536 1537 1537 1538 1539 1540 1540
1494 1495 1494 1492 1485 1480 1478 1478 1479 1482 1486 1489 1493 1497 1503 1506 1506 1508 1510 1511 1512 1512 1513 1515 1516 1517 1518 1519 1521 1522 1523 1524 1525 1526 1527 1528 1529 1530 1531 1532 1533 1534 1535 1536 1537 1537 1538 1539 1540
1494 1491 1493 1490 1483 1480 1479 1481 1481 1483 1487 1490 1494 1499 1504 1506 1507 1508 1510 1511 1512 1512 1513 1514 1515 1516 1517 1519 1520 1521 1521 1522 1523 1524 1526 1527 1528 1529 1530 1531 1532 1533 1534 1535 1536 1536 1537 1538 1539
1493 1490 1488 1484 1483 1482 1481 1482 1483 1485 1488 1492 1494 1499 1504 1506 1507 1508 1509 1510 1512 1512 1513 1514 1515 1516 1516 1517 1518 1519 1520 1521 1522 1523 1524 1525 1526 1527 1528 1529 1530 1531 1532 1533 1534 1535 1536 1537 1538
1491 1490 1486 1483 1482 1482 1481 1483 1485 1486 1489 1493 1496 1499 1503 1506 1506 1508 1509 1510 1511 1512 1512 1513 1514 1514 1515 1516 1517 1518 1519 1519 1520 1521 1522 1523 1524 1525 1526 1527 1528 1529 1530 1531 1532 1533 1534 1535 1536
1491 1493 1488 1484 1482 1481 1481 1484 1487 1488 1491 1494 1496 1498 1501 1504 1506 1508 1509 1510 1511 1511 1512 1512 1513 1513 1514 1515 1515 1516 1517 1517 1518 1519 1520 1521 1522 1523 1524 1525 1526 1527 1528 1529 1530 1531 1532 1533 1534
1490 1491 1487 1485 1482 1481 1483 1486 1489 1491 1493 1495 1498 1500 1502 1504 1506 1507 1508 1509 1510 1510 1511 1511 1512 1512 1513 1513 1514 1514 1515 1515 1516 1517 1517 1518 1519 1520 1521 1522 1523 1524 1525 1526 1527 1528 1529 1530 1531
1488 1489 1487 1486 1485 1485 1486 1488 1490 1492 1494 1496 1498 1500 1502 1504 1506 1507 1508 1509 1509 1510 1510 1510 1511 1511 1511 1511 1512 1512 1513 1513 1514 1515 1515 1515 1516 1517 1518 1518 1520 1521 1522 1523 1524 1525 1526 1527 1528
1489 1488 1488 1489 1489 1489 1489 1490 1492 1492 1494 1496 1497 1500 1502 1504 1505 1506 1507 1508 1508 1509 1509 1509 1510 1510 1510 1510 1510 1510 1511 1511 1512 1512 1512 1513 1513 1514 1515 1515 1516 1517 1519 1519 1520 1521 1523 1524 1525
1489 1490 1490 1491 1491 1491 1492 1492 1493 1493 1494 1495 1498 1500 1502 1503 1504 1505 1506 1507 1507 1508 1508 1508 1508 1508 1508 1508 1508 1508 1509 1509 1509 1510 1510 1510 1510 1511 1512 1512 1513 1514 1515 1516 1517 1518 1519 1520 1522
1489 1490 1491 1492 1492 1493 1493 1493 1494 1493 1494 1495 1497 1499 1501 1502 1503 1504 1505 1506 1506 1506 1506 1507 1507 1507 1506 1506 1506 1506 1506 1506 1507 1507 1507 1507 1508 1508 1508 1509 1509 1510 1511 1512 1513 1514 1516 1517 1518
1490 1491 1491 1491 1492 1493 1494 1494 1492 1492 1494 1495 1497 1499 1500 1501 1502 1503 1504 1505 1505 1505 1505 1505 1505 1505 1505 1504 1504 1504 1504 1504 1504 1504 1504 1504 1504 1504 1504 1505 1505 1506 1507 1509 1510 1511 1512 1513 1514
1489 1491 1493 1491 1491 1492 1496 1496 1490 1491 1493 1494 1496 1498 1499 1501 1502 1503 1503 1503 1504 1504 1504 1504 1504 1503 1503 1502 1502 1501 1501 1501 1501 1501 1501 1501 1501 1501 1501 1501 1501 1502 1504 1505 1505 1507 1508 1509 1510
1490 1492 1491 1492 1490 1490 1493 1493 1490 1490 1491 1493 1495 1497 1498 1499 1501 1501 1502 1502 1502 1502 1502 1502 1502 1501 1501 1500 1499 1499 1498 1498 1498 1498 1498 1498 1498 1497 1497 1497 1497 1498 1499 1500 1501 1502 1503 1504 1505
1492 1489 1489 1491 1489 1490 1491 1490 1488 1489 1489 1490 1492 1495 1497 1498 1499 1500 1500 1501 1501 1501 1501 1501 1500 1499 1498 1498 1497 1496 1496 1495 1495 1495 1495 1494 1494 1494 1493 1493 1494 1494 1495 1496 1497 1498 1499 1500 1501
1489 1489 1491 1490 1488 1490 1490 1488 1485 1485 1486 1487 1489 1492 1494 1496 1498 1498 1499 1500 1500 1500 1500 1499 1498 1497 1496 1495 1494 1493 1493 1492 1492 1492 1491 1491 1490 1490 1489 1489 1490 1490 1491 1492 1493 1494 1494 1495 1497
1490 1491 1491 1489 1488 1489 1489 1486 1482 1481 1482 1484 1486 1489 1492 1494 1496 1497 1497 1498 1498 1498 1498 1497 1497 1496 1495 1494 1492 1492 1490 1489 1489 1489 1488 1488 1487 1486 1486 1485 1486 1486 1487 1488 1489 1490 1490 1491 1493
1491 1494 1494 1494 1491 1488 1490 1488 1480 1478 1479 1482 1484 1486 1489 1491 1493 1494 1495 1496 1496 1496 1496 1495 1495 1494 1493 1492 1491 1490 1488 1487 1486 1485 1485 1484 1484 1483 1482 1482 1482 1482 1483 1483 1484 1486 1486 1486 1488
1496 1493 1493 1495 1497 1496 1492 1498 1481 1477 1478 1480 1482 1484 1487 1489 1491 1492 1493 1493 1494 1494 1493 1493 1492 1492 1491 1490 1488 1487 1486 1484 1483 1482 1481 1481 1480 1479 1479 1478 1478 1478 1479 1479 1480 1481 1482 1483 1483
1497 1494 1495 1496 1497 1498 1491 1496 1483 1475 1478 1478 1479 1481 1484 1486 1488 1489 1490 1491 1491 1491 1491 1491 1490 1489 1488 1487 1486 1485 1484 1482 1481 1480 1478 1478 1477 1476 1475 1475 1474 1474 1474 1475 1475 1476 1477 1478 1479
1497 1496 1495 1496 1499 1503 1488 1491 1484 1474 1472 1473 1475 1478 1481 1484 1486 1487 1488 1489 1489 1489 1489 1488 1487 1487 1486 1485 1484 1483 1481 1480 1478 1477 1475 1474 1473 1472 1472 1471 1471 1470 1470 1470 1471 1472 1472 1473 1474
1499 1502 1505 1504 1503 1496 1481 1486 1482 1468 1467 1469 1473 1476 1479 1481 1483 1485 1485 1486 1486 1486 1486 1486 1485 1484 1483 1482 1481 1480 1478 1477 1475 1474 1472 1471 1469 1469 1468 1467 1467 1467 1467 1466 1467 1467 1468 1469 1469
1501 1502 1508 1508 1501 1493 1485 1486 1476 1467 1467 1469 1472 1475 1478 1480 1481 1482 1483 1484 1484 1484 1484 1483 1482 1482 1481 1480 1479 1477 1476 1474 1472 1471 1469 1468 1466 1465 1465 1464 1463 1463 1462 1462 1462 1462 1463 1463 1464
1501 1501 1500 1506 1501 1500 1488 1475 1469 1467 1469 1471 1473 1475 1477 1478 1479 1480 1481 1481 1482 1481 1481 1481 1480 1479 1478 1477 1475 1474 1473 1471 1470 1468 1466 1465 1463 1462 1461 1460 1459 1458 1458 1458 1458 1457 1458 1458 1458
1503 1501 1503 1506 1505 1499 1483 1473 1474 1470 1470 1471 1472 1474 1476 1477 1478 1479 1479 1479 1479 1479 1479 1478 1477 1476 1475 1474 1472 1471 1469 1468 1466 1464 1463 1461 1459 1458 1457 1456 1455 1454 1454 1454 1453 1453 1453 1453 1453
1503 1503 1502 1502 1500 1502 1495 1483 1467 1467 1467 1469 1471 1472 1474 1475 1476 1476 1477 1476 1476 1476 1476 1475 1474 1473 1472 1471 1469 1468 1466 1464 1463 1461 1459 1457 1456 1455 1453 1452 1451 1450 1450 1449 1449 1448 1449 1448 1449
1498 1498 1500 1506 1501 1496 1498 1489 1467 1466 1467 1468 1470 1471 1472 1473 1473 1474 1474 1474 1473 1473 1472 1471 1471 1470 1469 1467 1466 1464 1463 1461 1459 1457 1456 1454 1452 1451 1450 1448 1447 1446 1446 1445 1445 1444 1444 1444 1444